Weather in Fyodorovka

Kazakhstan     53°38′07″N   62°42′13″E
temp.,
°C
wind,
m/s
gust,
m/s
humid.,
%
clouds,
%
prec.,
mm/h
press.,
hPa
HPBL,
m
10 may, mon
mon1000:00+15ne7145296 0.2 10161017
03:00+15ne71451100 0.0 1016622
06:00+14n6125569 0.0 1017443
09:00+15ne79475 0.0 1019659
12:00+19ne78365 0.0 10191408
15:00+20ne78285 0.0 10201854
18:00+20ene772562 0.0 10211946
21:00+17ne583147 0.0 1022256
11 may, tue
tue1100:00+13ne48410 0.0 1024154
03:00+11ene34465 0.0 102565
06:00+9ene33508 0.0 102731
09:00+14ene34390 0.0 1028360
12:00+18ene33280 0.0 10281611
15:00+20ne33235 0.0 10281938
18:00+21ne2222100 0.0 10281981
21:00+18ne3330100 0.0 102851
12 may, wed
wed1200:00+16ese2233100 0.0 102914
03:00+15sw2237100 0.0 102911
06:00+13w224182 0.0 102910
09:00+17wnw23320 0.0 1029299
12:00+21nw33235 0.0 10291683
15:00+24nw3318100 0.0 10272132
18:00+24nnw33228 0.0 10272388
21:00+22nw23345 0.0 102625
13 may, thu
thu1300:00+19wnw223883 0.0 102619
03:00+18nne354763 0.0 1026123
06:00+15nne345745 0.0 102744
09:00+19n464767 0.0 1028337
12:00+23n453435 0.0 10271799
15:00+25n552990 0.0 10262351
18:00+26n563059 0.0 10252351
21:00+23nne34395 0.0 102671
14 may, fri
fri1400:00+19ene22495 0.0 102711
03:00+18sw11535 0.0 102711
06:00+16wsw22565 0.0 102816
09:00+21w33445 0.0 1029315
12:00+26wnw33335 0.0 10281985
15:00+28w33276 0.0 10272541
18:00+28wsw44255 0.0 10262694
21:00+25sw36335 0.0 102594